FW6415 Weather Reports


Display with metric or nautical units.
time (UTC)temp
F
wind
direction
speed
MPH
gust
MPH
rain 1hr
in
rain 24hr
in
rain mn
in
humidity
%
barometer
mb
20210802191512 77 296 0.0 1.0 0.00 0.04 0.00 62 1012.4
20210802191310 77 165 0.0 1.0 0.00 0.04 0.00 61 1012.4
20210802191107 77 192 0.0 0.0 0.00 0.04 0.00 61 1012.4
20210802190902 77 192 0.0 0.0 0.00 0.04 0.00 61 1012.4
20210802190700 78 191 0.0 1.0 0.00 0.04 0.00 62 1012.4
20210802190452 78 265 0.0 0.0 0.00 0.04 0.00 60 1012.4
20210802190246 78 265 0.0 0.0 0.00 0.04 0.00 59 1012.5
20210802190043 78 265 0.0 0.0 0.00 0.04 0.00 58 1012.4
20210802185842 78 265 0.0 0.0 0.00 0.04 0.00 59 1012.3
20210802185638 77 264 0.0 1.0 0.00 0.04 0.00 58 1012.4
20210802185433 77 333 0.0 0.0 0.00 0.04 0.00 58 1012.4
20210802185222 77 321 0.0 3.0 0.00 0.04 0.00 58 1012.3
20210802185016 77 308 0.0 3.0 0.00 0.04 0.00 61 1012.3
20210802184811 77 297 0.0 3.0 0.00 0.04 0.00 62 1012.3
20210802184605 77 87 0.0 2.0 0.00 0.04 0.00 60 1012.3
20210802184355 77 11 0.0 2.0 0.00 0.04 0.00 61 1012.3
20210802184152 77 42 0.0 2.0 0.00 0.04 0.00 62 1012.3
20210802183950 77 42 0.0 2.0 0.00 0.04 0.00 60 1012.3
20210802183740 77 42 0.0 2.0 0.00 0.04 0.00 59 1012.3
20210802183533 77 95 0.0 2.0 0.00 0.04 0.00 61 1012.3
20210802183325 77 110 0.0 2.0 0.00 0.04 0.00 59 1012.3
20210802183124 77 220 0.0 2.0 0.00 0.04 0.00 60 1012.3
20210802182921 77 313 0.0 1.0 0.00 0.04 0.00 61 1012.3
20210802182719 77 315 0.0 1.0 0.00 0.04 0.00 64 1012.3
20210802182518 77 103 0.0 1.0 0.00 0.04 0.00 63 1012.3
20210802182314 77 103 0.0 1.0 0.00 0.04 0.00 63 1012.2
20210802182108 77 104 0.0 1.0 0.00 0.04 0.00 63 1012.2
20210802181908 77 103 0.0 1.0 0.00 0.04 0.00 62 1012.3
20210802181707 77 103 0.0 0.0 0.00 0.04 0.00 63 1012.2
20210802181508 76 103 0.0 0.0 0.00 0.04 0.00 64 1012.3
20210802181301 76 89 0.0 2.0 0.00 0.04 0.00 62 1012.2
20210802181056 76 296 0.0 2.0 0.00 0.04 0.00 63 1012.3
20210802180853 76 304 0.0 2.0 0.00 0.04 0.00 63 1012.3
20210802180654 76 300 0.0 2.0 0.00 0.04 0.00 62 1012.3
20210802180447 76 302 0.0 2.0 0.00 0.04 0.00 63 1012.3
20210802180236 75 293 0.0 2.0 0.00 0.04 0.00 67 1012.4
20210802180035 75 287 0.0 2.0 0.00 0.04 0.00 67 1012.3
20210802175829 75 288 0.0 2.0 0.00 0.04 0.00 63 1012.4
20210802175626 76 288 0.0 2.0 0.00 0.04 0.00 64 1012.5
20210802175417 76 288 0.0 2.0 0.00 0.04 0.00 63 1012.4
20210802175209 76 288 0.0 2.0 0.00 0.04 0.00 62 1012.4
20210802175005 76 285 0.0 2.0 0.00 0.04 0.00 64 1012.6
20210802174804 76 292 0.0 2.0 0.00 0.04 0.00 63 1012.3
20210802174603 76 295 0.0 1.0 0.00 0.04 0.00 64 1012.4
20210802174404 76 169 0.0 0.0 0.00 0.04 0.00 65 1012.4
20210802174154 76 169 0.0 1.0 0.00 0.04 0.00 68 1012.3
20210802173951 76 269 0.0 1.0 0.00 0.04 0.00 66 1012.4
20210802173749 76 84 0.0 1.0 0.00 0.04 0.00 66 1012.3
20210802173544 76 263 0.0 1.0 0.00 0.04 0.00 66 1012.3
20210802173337 77 270 0.0 2.0 0.00 0.04 0.00 63 1012.3
20210802173132 77 171 0.0 2.0 0.00 0.04 0.00 62 1012.3
20210802172924 77 136 0.0 2.0 0.00 0.04 0.00 65 1012.1
20210802172719 77 97 0.0 2.0 0.00 0.04 0.00 60 1012.1
20210802172515 77 59 0.0 1.0 0.00 0.04 0.00 62 1012.3
20210802172306 77 34 0.0 1.0 0.00 0.04 0.00 63 1012.3
20210802172057 76 304 0.0 1.0 0.00 0.04 0.00 63 1012.3
20210802171854 76 313 0.0 1.0 0.00 0.04 0.00 65 1012.2
20210802171646 76 313 0.0 1.0 0.00 0.04 0.00 63 1012.2
20210802171442 76 162 0.0 1.0 0.00 0.04 0.00 68 1012.2
20210802171237 76 161 0.0 1.0 0.00 0.04 0.00 63 1012.2
20210802171030 76 161 0.0 1.0 0.00 0.04 0.00 66 1012.2
20210802170827 76 247 0.0 1.0 0.00 0.04 0.00 66 1012.1
20210802170625 75 247 0.0 0.0 0.00 0.04 0.00 65 1012.1
20210802170424 75 247 0.0 1.0 0.00 0.04 0.00 64 1012.0
20210802170222 75 247 0.0 0.0 0.00 0.04 0.00 66 1012.2
20210802170018 75 247 0.0 0.0 0.00 0.04 0.00 65 1012.1
20210802165818 76 257 0.0 0.0 0.00 0.04 0.00 67 1012.1
20210802165610 75 257 0.0 2.0 0.00 0.04 0.00 64 1012.0
20210802165407 76 260 0.0 2.0 0.00 0.04 0.00 63 1012.1
20210802165159 76 298 0.0 2.0 0.00 0.04 0.00 62 1012.1
20210802164958 76 85 0.0 2.0 0.00 0.04 0.00 65 1012.1
20210802164747 76 90 0.0 2.0 0.00 0.04 0.00 66 1012.1
20210802164545 76 88 0.0 1.0 0.00 0.04 0.00 64 1012.0
20210802164346 76 36 0.0 0.0 0.00 0.04 0.00 66 1012.0
20210802164148 75 36 0.0 0.0 0.00 0.04 0.00 66 1012.0
20210802163943 75 36 0.0 2.0 0.00 0.04 0.00 66 1012.0
20210802163737 75 355 0.0 2.0 0.00 0.04 0.00 68 1012.0
20210802163530 75 88 0.0 2.0 0.00 0.04 0.00 68 1012.0
20210802163324 75 83 0.0 2.0 0.00 0.04 0.00 68 1012.0
20210802163114 75 271 0.0 1.0 0.00 0.04 0.00 66 1012.0
20210802162910 75 67 0.0 1.0 0.00 0.04 0.00 65 1012.0
20210802162710 75 134 0.0 1.0 0.00 0.04 0.00 67 1012.0
20210802162504 74 121 0.0 2.0 0.00 0.04 0.00 66 1012.0
20210802162305 74 123 0.0 2.0 0.00 0.04 0.00 66 1012.0
20210802162103 74 281 0.0 2.0 0.00 0.04 0.00 68 1012.0
20210802161901 73 346 0.0 2.0 0.00 0.04 0.00 72 1012.0
20210802161659 73 281 0.0 2.0 0.00 0.04 0.00 71 1012.0
20210802161456 73 281 0.0 2.0 0.00 0.04 0.00 70 1011.9
20210802161250 73 337 0.0 2.0 0.00 0.04 0.00 70 1011.9
20210802161045 72 96 0.0 2.0 0.00 0.04 0.00 69 1011.9
20210802160837 72 294 0.0 2.0 0.00 0.04 0.00 72 1011.9
20210802160628 72 82 0.0 0.0 0.00 0.04 0.00 72 1012.0
20210802160425 72 82 0.0 1.0 0.00 0.04 0.00 71 1011.9
20210802160217 72 67 0.0 0.0 0.00 0.04 0.00 72 1011.9
20210802160017 72 303 0.0 0.0 0.00 0.04 0.00 72 1012.0
20210802155817 73 303 0.0 1.0 0.00 0.04 0.00 71 1011.9
20210802155616 73 303 0.0 1.0 0.00 0.04 0.00 69 1011.9
20210802155415 73 301 0.0 1.0 0.00 0.04 0.00 70 1012.0
20210802155212 73 294 0.0 0.0 0.00 0.04 0.00 72 1011.9
20210802155002 73 295 0.0 2.0 0.00 0.04 0.00 72 1011.9
20210802154752 73 203 0.0 2.0 0.00 0.04 0.00 71 1011.9
20210802154551 73 101 0.0 2.0 0.00 0.04 0.00 70 1011.9
20210802154341 73 105 0.0 2.0 0.00 0.04 0.00 69 1011.9
20210802154141 74 355 0.0 0.0 0.00 0.04 0.00 71 1011.9
20210802153942 74 355 0.0 0.0 0.00 0.04 0.00 70 1011.9
20210802153738 74 355 0.0 0.0 0.00 0.04 0.00 70 1011.8
20210802153532 74 355 0.0 1.0 0.00 0.04 0.00 68 1011.8
20210802153327 74 0 0.0 1.0 0.00 0.04 0.00 69 1011.8
20210802153127 73 76 0.0 1.0 0.00 0.04 0.00 71 1011.8
20210802152922 73 105 0.0 1.0 0.00 0.04 0.00 74 1011.8
20210802152712 73 106 0.0 1.0 0.00 0.04 0.00 72 1011.9
20210802152502 73 207 0.0 0.0 0.00 0.04 0.00 74 1011.8
20210802152259 72 195 0.0 0.0 0.00 0.04 0.00 75 1011.8
20210802152056 72 195 0.0 1.0 0.00 0.04 0.00 75 1011.9
20210802151847 72 255 0.0 1.0 0.00 0.04 0.00 74 1011.9
20210802151648 72 130 0.0 0.0 0.00 0.04 0.00 74 1011.8
20210802151446 72 130 0.0 0.0 0.00 0.04 0.00 73 1011.8
20210802151242 72 130 0.0 1.0 0.00 0.04 0.00 76 1011.9
20210802151033 72 130 0.0 1.0 0.00 0.04 0.00 75 1011.8
20210802150831 72 131 0.0 0.0 0.00 0.04 0.00 78 1011.8
20210802150628 71 131 0.0 0.0 0.00 0.04 0.00 77 1011.7
20210802150420 71 130 0.0 2.0 0.00 0.04 0.00 75 1011.7
20210802150214 71 301 0.0 2.0 0.00 0.04 0.00 76 1011.8
20210802150014 71 95 0.0 1.0 0.00 0.04 0.00 77 1011.7
20210802145806 71 91 0.0 0.0 0.00 0.04 0.00 77 1011.8
20210802145602 71 319 0.0 0.0 0.00 0.04 0.00 78 1011.7
20210802145354 71 319 0.0 2.0 0.00 0.04 0.00 77 1011.7
20210802145152 71 319 0.0 2.0 0.00 0.04 0.00 76 1011.7
20210802144950 71 311 0.0 2.0 0.00 0.04 0.00 78 1011.7
20210802144739 71 306 0.0 2.0 0.00 0.04 0.00 77 1011.7
20210802144539 71 306 0.0 2.0 0.00 0.04 0.00 77 1011.7
20210802144334 70 306 0.0 2.0 0.00 0.04 0.00 77 1011.7
20210802144132 70 306 0.0 2.0 0.00 0.04 0.00 79 1011.7
20210802143925 70 311 0.0 2.0 0.00 0.04 0.00 81 1011.7
20210802143722 70 119 0.0 0.0 0.00 0.04 0.00 82 1011.7
20210802143513 69 117 0.0 0.0 0.00 0.04 0.00 83 1011.7
20210802143312 69 117 0.0 2.0 0.00 0.04 0.00 79 1011.6
20210802143105 69 92 0.0 1.0 0.00 0.04 0.00 82 1011.7
20210802142859 69 336 0.0 0.0 0.00 0.04 0.00 81 1011.7
20210802142653 69 290 0.0 2.0 0.00 0.04 0.00 83 1011.7
20210802142452 68 290 0.0 2.0 0.00 0.04 0.00 83 1011.6
20210802142250 68 286 0.0 2.0 0.00 0.04 0.00 82 1011.6
20210802142047 68 286 0.0 2.0 0.00 0.04 0.00 83 1011.6
20210802141845 68 146 0.0 2.0 0.00 0.04 0.00 83 1011.6
20210802141636 68 112 0.0 0.0 0.00 0.04 0.00 86 1011.6
20210802141427 68 111 0.0 0.0 0.00 0.04 0.00 85 1011.5
20210802141228 68 111 0.0 0.0 0.00 0.04 0.00 86 1011.6
20210802141020 68 111 0.0 0.0 0.00 0.04 0.00 86 1011.6
20210802140811 68 111 0.0 0.0 0.00 0.04 0.00 86 1011.7
20210802140612 68 111 0.0 0.0 0.00 0.04 0.00 86 1011.6
20210802140403 68 111 0.0 0.0 0.00 0.04 0.00 87 1011.5
20210802140155 68 111 0.0 0.0 0.00 0.04 0.00 87 1011.5
20210802135951 68 111 0.0 0.0 0.00 0.04 0.00 87 1011.6
20210802135741 68 111 0.0 0.0 0.00 0.04 0.00 87 1011.5
20210802135536 68 111 0.0 0.0 0.00 0.04 0.00 87 1011.5
20210802135335 67 111 0.0 0.0 0.00 0.04 0.00 87 1011.5
20210802135136 67 111 0.0 1.0 0.00 0.04 0.00 87 1011.4
20210802134932 67 111 0.0 1.0 0.00 0.04 0.00 86 1011.4
20210802134733 67 111 0.0 1.0 0.00 0.04 0.00 86 1011.4
20210802134529 67 246 0.0 0.0 0.00 0.04 0.00 88 1011.4
20210802134326 67 246 0.0 0.0 0.00 0.04 0.00 88 1011.4
20210802134126 67 246 0.0 0.0 0.00 0.04 0.00 88 1011.3
20210802133921 66 246 0.0 0.0 0.00 0.04 0.00 88 1011.3
20210802133715 66 246 0.0 0.0 0.00 0.04 0.00 88 1011.3
20210802133512 66 246 0.0 0.0 0.00 0.04 0.00 88 1011.3
20210802133311 66 246 0.0 0.0 0.00 0.04 0.00 88 1011.3
20210802133100 66 246 0.0 0.0 0.00 0.04 0.00 88 1011.3
20210802132856 66 246 0.0 0.0 0.00 0.04 0.00 89 1011.3
20210802132647 66 246 0.0 0.0 0.00 0.04 0.00 90 1011.2
20210802132438 66 246 0.0 0.0 0.00 0.04 0.00 90 1011.2
20210802132228 66 246 0.0 0.0 0.00 0.04 0.00 90 1011.2
20210802132026 66 246 0.0 0.0 0.00 0.04 0.00 90 1011.2
20210802131816 66 246 0.0 0.0 0.00 0.04 0.00 90 1011.3
20210802131615 66 246 0.0 0.0 0.00 0.04 0.00 91 1011.3
20210802131413 65 246 0.0 1.0 0.00 0.04 0.00 90 1011.3
20210802131205 65 238 0.0 1.0 0.00 0.04 0.00 92 1011.3
20210802131000 65 121 0.0 0.0 0.00 0.04 0.00 92 1011.2
20210802130753 65 121 0.0 0.0 0.00 0.04 0.00 92 1011.2
20210802130549 65 121 0.0 0.0 0.00 0.04 0.00 92 1011.2
20210802130346 65 121 0.0 0.0 0.00 0.04 0.00 92 1011.2
20210802130138 65 121 0.0 0.0 0.00 0.04 0.00 91 1011.2
20210802125935 65 121 0.0 0.0 0.00 0.04 0.00 92 1011.2
20210802125734 65 119 0.0 0.0 0.00 0.04 0.00 92 1011.2
20210802125532 65 119 0.0 0.0 0.00 0.04 0.00 92 1011.2
20210802125332 65 119 0.0 0.0 0.00 0.04 0.00 93 1011.2
20210802125124 65 119 0.0 0.0 0.00 0.04 0.00 93 1011.2
20210802124917 65 119 0.0 0.0 0.00 0.04 0.00 94 1011.2
20210802124709 65 119 0.0 0.0 0.00 0.04 0.00 95 1011.2
20210802124502 65 119 0.0 0.0 0.00 0.04 0.00 95 1011.2
20210802124252 64 119 0.0 0.0 0.00 0.04 0.00 94 1011.2
20210802124047 64 119 0.0 0.0 0.00 0.04 0.00 94 1011.1
20210802123846 64 119 0.0 0.0 0.00 0.04 0.00 93 1011.1
20210802123643 64 119 0.0 0.0 0.00 0.04 0.00 95 1011.1
20210802123438 64 128 0.0 0.0 0.00 0.04 0.00 95 1011.1
20210802123230 64 128 0.0 0.0 0.00 0.04 0.00 95 1011.1
20210802123025 64 128 0.0 0.0 0.00 0.04 0.00 95 1011.1
20210802122818 64 128 0.0 0.0 0.00 0.04 0.00 95 1011.0
20210802122618 64 128 0.0 0.0 0.00 0.04 0.00 95 1011.0
20210802122415 64 128 0.0 0.0 0.00 0.04 0.00 95 1011.1
20210802122208 64 128 0.0 0.0 0.00 0.04 0.00 95 1011.1
20210802122004 64 128 0.0 0.0 0.00 0.04 0.00 95 1011.1
20210802121802 63 128 0.0 0.0 0.00 0.04 0.00 95 1011.0
20210802121554 63 128 0.0 0.0 0.00 0.04 0.00 95 1011.0
20210802121351 63 128 0.0 0.0 0.00 0.04 0.00 95 1011.0
20210802121152 63 128 0.0 0.0 0.00 0.04 0.00 95 1011.0
20210802120952 64 128 0.0 0.0 0.00 0.04 0.00 96 1011.0
20210802120752 64 128 0.0 0.0 0.00 0.04 0.00 96 1011.0
20210802120548 64 128 0.0 0.0 0.00 0.04 0.00 96 1011.0
20210802120341 63 128 0.0 0.0 0.00 0.04 0.00 96 1010.9
20210802120139 63 128 0.0 0.0 0.00 0.04 0.00 96 1010.9
20210802115939 63 128 0.0 0.0 0.00 0.04 0.00 96 1010.9
20210802115733 63 128 0.0 0.0 0.00 0.04 0.00 96 1010.9
20210802115529 63 128 0.0 0.0 0.00 0.04 0.00 96 1010.8
20210802115325 63 128 0.0 0.0 0.00 0.04 0.00 96 1010.7
20210802115122 63 128 0.0 0.0 0.00 0.04 0.00 96 1010.8
20210802114914 63 128 0.0 0.0 0.00 0.04 0.00 96 1010.7
20210802114703 63 128 0.0 0.0 0.00 0.04 0.00 96 1010.7
20210802114458 63 128 0.0 0.0 0.00 0.04 0.00 96 1010.7
20210802114258 63 128 0.0 0.0 0.00 0.04 0.00 97 1010.6
20210802114053 63 128 0.0 0.0 0.00 0.04 0.00 96 1010.7
20210802113853 63 128 0.0 0.0 0.00 0.04 0.00 96 1010.6
20210802113647 63 128 0.0 0.0 0.00 0.04 0.00 97 1010.6
20210802113441 63 128 0.0 0.0 0.00 0.04 0.00 96 1010.5
20210802113232 62 128 0.0 0.0 0.00 0.04 0.00 96 1010.5
20210802113026 62 128 0.0 0.0 0.00 0.04 0.00 96 1010.4
20210802112825 62 128 0.0 0.0 0.00 0.04 0.00 96 1010.5
20210802112625 62 128 0.0 0.0 0.00 0.04 0.00 96 1010.4
20210802112420 62 128 0.0 0.0 0.00 0.04 0.00 97 1010.4
20210802112212 62 128 0.0 0.0 0.00 0.04 0.00 97 1010.4
20210802112005 62 128 0.0 0.0 0.00 0.04 0.00 97 1010.4
20210802111759 62 128 0.0 0.0 0.00 0.04 0.00 97 1010.4
20210802111556 62 128 0.0 0.0 0.00 0.04 0.00 96 1010.4
20210802111355 62 128 0.0 0.0 0.00 0.04 0.00 96 1010.4
20210802111152 62 128 0.0 0.0 0.00 0.04 0.00 96 1010.4
20210802110944 62 128 0.0 0.0 0.00 0.04 0.00 96 1010.4
20210802110738 62 128 0.0 0.0 0.00 0.04 0.00 96 1010.4
20210802110535 62 128 0.0 1.0 0.00 0.04 0.00 96 1010.4
20210802110329 61 128 0.0 0.0 0.00 0.04 0.00 96 1010.3
20210802110120 61 128 0.0 0.0 0.00 0.04 0.00 96 1010.4
20210802105920 61 128 0.0 0.0 0.00 0.04 0.00 96 1010.3
20210802105716 61 128 0.0 0.0 0.00 0.04 0.00 96 1010.3
20210802105510 61 128 0.0 0.0 0.00 0.04 0.00 96 1010.3
20210802105311 61 128 0.0 0.0 0.00 0.04 0.00 96 1010.3
20210802105100 61 128 0.0 0.0 0.00 0.04 0.00 96 1010.3
20210802104858 61 128 0.0 0.0 0.00 0.04 0.00 96 1010.3
20210802104655 61 128 0.0 0.0 0.00 0.04 0.00 96 1010.3
20210802104455 61 128 0.0 0.0 0.00 0.04 0.00 96 1010.3
20210802104253 61 128 0.0 0.0 0.00 0.04 0.00 96 1010.3
20210802104050 61 128 0.0 0.0 0.00 0.04 0.00 96 1010.3
20210802103845 61 128 0.0 0.0 0.00 0.04 0.00 96 1010.3
20210802103639 61 128 0.0 0.0 0.00 0.04 0.00 96 1010.3
20210802103430 61 128 0.0 0.0 0.00 0.04 0.00 96 1010.3
20210802103228 61 128 0.0 0.0 0.00 0.04 0.00 96 1010.3
20210802103017 61 128 0.0 0.0 0.00 0.04 0.00 96 1010.3
20210802102818 61 128 0.0 0.0 0.00 0.04 0.00 96 1010.3
20210802102609 61 128 0.0 0.0 0.00 0.04 0.00 96 1010.3
20210802102400 61 128 0.0 0.0 0.00 0.04 0.00 96 1010.2
20210802102159 61 128 0.0 0.0 0.00 0.04 0.00 95 1010.2
20210802101954 61 128 0.0 0.0 0.00 0.04 0.00 96 1010.1
20210802101751 61 128 0.0 0.0 0.00 0.04 0.00 96 1010.0
20210802101546 61 128 0.0 0.0 0.00 0.04 0.00 96 1010.0
20210802101344 61 128 0.0 0.0 0.00 0.04 0.00 95 1010.0
20210802101138 61 128 0.0 0.0 0.00 0.04 0.00 95 1010.0
20210802100932 61 128 0.0 0.0 0.00 0.04 0.00 95 1009.9
20210802100730 62 128 0.0 0.0 0.00 0.04 0.00 95 1009.9
20210802100530 62 128 0.0 0.0 0.00 0.04 0.00 95 1009.9
20210802100324 62 128 0.0 0.0 0.00 0.04 0.00 96 1009.8
20210802100123 62 128 0.0 0.0 0.00 0.04 0.00 96 1009.8
20210802095921 62 128 0.0 0.0 0.00 0.04 0.00 96 1009.7
20210802095718 62 128 0.0 0.0 0.00 0.04 0.00 96 1009.7
20210802095508 62 128 0.0 0.0 0.00 0.04 0.00 96 1009.7
20210802095305 62 128 0.0 0.0 0.00 0.04 0.00 96 1009.8
20210802095054 62 128 0.0 0.0 0.00 0.04 0.00 96 1009.8
20210802094850 62 128 0.0 0.0 0.00 0.04 0.00 96 1009.7
20210802094648 62 128 0.0 0.0 0.00 0.04 0.00 96 1009.7
20210802094445 62 128 0.0 0.0 0.00 0.04 0.00 96 1009.7
20210802094246 62 128 0.0 0.0 0.00 0.04 0.00 96 1009.6
20210802094037 62 128 0.0 0.0 0.00 0.04 0.00 96 1009.7
20210802093836 62 128 0.0 0.0 0.00 0.04 0.00 96 1009.6
20210802093628 62 128 0.0 0.0 0.00 0.04 0.00 96 1009.6
20210802093428 62 128 0.0 0.0 0.00 0.04 0.00 96 1009.7
20210802093221 62 128 0.0 0.0 0.00 0.04 0.00 96 1009.7
20210802093014 62 128 0.0 0.0 0.00 0.04 0.00 96 1009.7
20210802092811 62 128 0.0 0.0 0.00 0.04 0.00 96 1009.7
20210802092608 62 128 0.0 0.0 0.00 0.04 0.00 96 1009.6
20210802092406 62 128 0.0 0.0 0.00 0.04 0.00 96 1009.5
20210802092204 62 128 0.0 0.0 0.00 0.04 0.00 96 1009.5
20210802092002 62 128 0.0 0.0 0.00 0.04 0.00 96 1009.5
20210802091754 63 128 0.0 0.0 0.00 0.04 0.00 96 1009.5
20210802091545 63 128 0.0 0.0 0.00 0.04 0.00 96 1009.5
20210802091343 63 128 0.0 0.0 0.00 0.04 0.00 96 1009.4
20210802091139 63 128 0.0 0.0 0.00 0.04 0.00 96 1009.3
20210802090933 63 128 0.0 0.0 0.00 0.04 0.00 96 1009.3
20210802090729 63 128 0.0 0.0 0.00 0.04 0.00 96 1009.3
20210802090520 63 128 0.0 0.0 0.00 0.04 0.00 96 1009.2
20210802090310 63 128 0.0 0.0 0.00 0.04 0.00 96 1009.2
20210802090108 63 128 0.0 0.0 0.00 0.04 0.00 96 1009.2
20210802085900 63 128 0.0 0.0 0.00 0.04 0.00 96 1009.2
20210802085658 63 128 0.0 0.0 0.00 0.04 0.00 96 1009.1
20210802085454 63 128 0.0 0.0 0.00 0.04 0.00 96 1009.0
20210802085250 63 128 0.0 0.0 0.00 0.04 0.00 96 1009.0
20210802085041 63 128 0.0 0.0 0.00 0.04 0.00 96 1009.1
20210802084831 63 128 0.0 0.0 0.00 0.04 0.00 96 1009.0
20210802084621 63 128 0.0 0.0 0.00 0.04 0.00 96 1009.0
20210802084411 63 128 0.0 0.0 0.00 0.04 0.00 96 1009.0
20210802084206 63 128 0.0 0.0 0.00 0.04 0.00 96 1009.0
20210802083956 63 128 0.0 0.0 0.00 0.04 0.00 96 1009.0
20210802083755 63 128 0.0 0.0 0.00 0.04 0.00 96 1009.0
20210802083545 63 128 0.0 0.0 0.00 0.04 0.00 96 1008.9
20210802083338 63 128 0.0 0.0 0.00 0.04 0.00 96 1009.0
20210802083132 63 128 0.0 0.0 0.00 0.04 0.00 96 1009.0
20210802082931 63 128 0.0 0.0 0.00 0.04 0.00 96 1009.0
20210802082725 63 128 0.0 0.0 0.00 0.04 0.00 96 1009.1
20210802082523 63 128 0.0 0.0 0.00 0.04 0.00 96 1009.1
20210802082314 63 128 0.0 0.0 0.00 0.04 0.00 96 1009.1
20210802082106 64 128 0.0 0.0 0.00 0.04 0.00 96 1009.0
20210802081902 64 128 0.0 0.0 0.00 0.04 0.00 96 1009.0
20210802081702 64 128 0.0 0.0 0.00 0.04 0.00 96 1009.0
20210802081459 64 128 0.0 0.0 0.00 0.04 0.00 96 1009.1
20210802081249 64 128 0.0 0.0 0.00 0.04 0.00 96 1009.0
20210802081040 64 128 0.0 0.0 0.00 0.04 0.00 96 1009.1
20210802080841 64 128 0.0 0.0 0.00 0.04 0.00 96 1009.0
20210802080635 64 128 0.0 0.0 0.00 0.04 0.00 96 1009.0
20210802080431 64 128 0.0 0.0 0.00 0.04 0.00 96 1009.1
20210802080223 64 128 0.0 0.0 0.00 0.04 0.00 96 1009.0
20210802080023 64 128 0.0 0.0 0.00 0.04 0.00 96 1009.0
20210802075815 64 128 0.0 0.0 0.00 0.04 0.00 96 1009.0
20210802075616 64 128 0.0 0.0 0.00 0.04 0.00 96 1009.0
20210802075414 64 128 0.0 0.0 0.00 0.04 0.00 96 1009.0
20210802075207 64 128 0.0 0.0 0.00 0.04 0.00 96 1008.9
20210802075001 64 128 0.0 0.0 0.00 0.04 0.00 96 1008.9
20210802074751 64 128 0.0 0.0 0.00 0.04 0.00 96 1009.0
20210802074547 64 128 0.0 0.0 0.00 0.04 0.00 96 1009.0
20210802074348 64 128 0.0 0.0 0.00 0.04 0.00 96 1009.0
20210802074145 64 128 0.0 0.0 0.00 0.04 0.00 96 1009.0
20210802073936 64 128 0.0 0.0 0.00 0.04 0.00 96 1009.0
20210802073731 64 128 0.0 0.0 0.00 0.04 0.00 96 1009.0
20210802073529 64 128 0.0 0.0 0.00 0.04 0.00 96 1008.9
20210802073320 64 128 0.0 0.0 0.00 0.04 0.00 96 1009.0
20210802073119 64 128 0.0 0.0 0.00 0.04 0.00 96 1008.9
20210802072911 64 128 0.0 0.0 0.00 0.04 0.00 96 1009.0
20210802072707 64 128 0.0 0.0 0.00 0.04 0.00 96 1008.9
20210802072500 64 128 0.0 0.0 0.00 0.04 0.00 96 1009.0
20210802072251 64 128 0.0 0.0 0.00 0.04 0.00 96 1009.0
20210802072046 64 128 0.0 0.0 0.00 0.04 0.00 96 1008.9
20210802071837 64 128 0.0 0.0 0.00 0.04 0.00 96 1008.9
20210802071636 64 128 0.0 0.0 0.00 0.04 0.00 96 1008.8
20210802071437 64 128 0.0 0.0 0.00 0.04 0.00 96 1008.8
20210802071232 64 128 0.0 0.0 0.00 0.04 0.00 96 1008.9
20210802071030 64 128 0.0 0.0 0.00 0.04 0.00 96 1008.9
20210802070827 64 128 0.0 0.0 0.00 0.04 0.00 96 1008.9
20210802070618 64 128 0.0 0.0 0.00 0.04 0.00 96 1009.0
20210802070417 64 128 0.0 0.0 0.00 0.04 0.00 96 1008.9
20210802070214 64 128 0.0 0.0 0.00 0.04 0.00 96 1009.0
20210802070004 64 128 0.0 0.0 0.00 0.04 0.00 96 1009.0
20210802065755 64 128 0.0 0.0 0.00 0.04 0.00 96 1009.0
20210802065549 64 128 0.0 0.0 0.00 0.04 0.00 96 1009.0
20210802065342 64 128 0.0 0.0 0.00 0.04 0.00 96 1009.0
20210802065135 64 128 0.0 0.0 0.00 0.04 0.00 96 1009.1
20210802064934 64 128 0.0 0.0 0.00 0.04 0.00 96 1009.1
20210802064736 64 128 0.0 0.0 0.00 0.04 0.00 96 1009.1
20210802064525 64 128 0.0 0.0 0.00 0.04 0.00 96 1009.1
20210802064315 64 128 0.0 0.0 0.00 0.04 0.00 96 1009.1
20210802064113 64 128 0.0 0.0 0.00 0.04 0.00 96 1009.2
20210802063913 64 128 0.0 0.0 0.00 0.04 0.00 96 1009.1
20210802063710 64 128 0.0 0.0 0.00 0.04 0.00 96 1009.2
20210802063503 64 128 0.0 0.0 0.00 0.04 0.00 96 1009.2
20210802063258 64 128 0.0 0.0 0.00 0.04 0.00 96 1009.2
20210802063050 64 128 0.0 0.0 0.00 0.04 0.00 96 1009.2
20210802062841 64 128 0.0 0.0 0.00 0.04 0.00 96 1009.2
20210802062632 64 128 0.0 0.0 0.00 0.04 0.00 96 1009.2
20210802062430 64 128 0.0 0.0 0.00 0.04 0.00 96 1009.2
20210802062220 64 128 0.0 0.0 0.00 0.04 0.00 96 1009.3
20210802062016 64 128 0.0 0.0 0.00 0.04 0.00 96 1009.3
20210802061814 64 128 0.0 0.0 0.00 0.04 0.00 96 1009.3
20210802061604 64 128 0.0 0.0 0.00 0.04 0.00 96 1009.4
20210802061401 64 128 0.0 0.0 0.00 0.04 0.00 96 1009.3
20210802061201 64 128 0.0 0.0 0.00 0.04 0.00 96 1009.4
20210802060959 64 128 0.0 0.0 0.00 0.04 0.00 96 1009.4
20210802060753 64 128 0.0 0.0 0.00 0.04 0.00 96 1009.4
20210802060547 64 128 0.0 0.0 0.00 0.04 0.00 96 1009.4
20210802060347 64 128 0.0 0.0 0.00 0.04 0.00 96 1009.4
20210802060143 64 128 0.0 0.0 0.00 0.04 0.00 96 1009.5
20210802055934 64 128 0.0 0.0 0.00 0.04 0.00 96 1009.4
20210802055733 64 128 0.0 0.0 0.00 0.04 0.00 96 1009.5
20210802055523 64 128 0.0 0.0 0.00 0.04 0.00 96 1009.5
20210802055317 64 128 0.0 0.0 0.00 0.04 0.00 95 1009.4
20210802055110 64 128 0.0 0.0 0.00 0.04 0.00 95 1009.4
20210802054906 64 128 0.0 0.0 0.00 0.04 0.00 95 1009.4
20210802054700 64 128 0.0 0.0 0.00 0.04 0.00 95 1009.5
20210802054459 64 128 0.0 0.0 0.00 0.04 0.00 95 1009.5
20210802054250 64 128 0.0 0.0 0.00 0.04 0.00 95 1009.5
20210802054043 64 128 0.0 0.0 0.00 0.04 0.00 95 1009.5
20210802053841 64 128 0.0 0.0 0.00 0.04 0.00 95 1009.5
20210802053631 64 128 0.0 0.0 0.00 0.04 0.00 95 1009.4
20210802053431 64 128 0.0 0.0 0.00 0.04 0.00 95 1009.4
20210802053229 64 128 0.0 0.0 0.00 0.04 0.00 95 1009.4
20210802053023 64 128 0.0 0.0 0.00 0.04 0.00 95 1009.4
20210802052818 64 128 0.0 0.0 0.00 0.04 0.00 95 1009.4
20210802052612 64 128 0.0 0.0 0.00 0.04 0.00 95 1009.3
20210802052412 64 128 0.0 0.0 0.00 0.04 0.00 95 1009.3
20210802052207 64 128 0.0 0.0 0.00 0.04 0.00 95 1009.3
20210802052004 64 128 0.0 0.0 0.00 0.04 0.00 95 1009.4
20210802051756 64 128 0.0 0.0 0.00 0.04 0.00 95 1009.4
20210802051551 64 128 0.0 0.0 0.00 0.04 0.00 95 1009.4
20210802051349 64 128 0.0 0.0 0.00 0.04 0.00 95 1009.4
20210802051146 64 128 0.0 0.0 0.00 0.04 0.00 95 1009.6
20210802050946 64 128 0.0 0.0 0.00 0.04 0.00 95 1009.6
20210802050737 64 128 0.0 0.0 0.00 0.04 0.00 95 1009.6
20210802050534 64 128 0.0 0.0 0.00 0.04 0.00 95 1009.7
20210802050325 64 128 0.0 0.0 0.00 0.04 0.00 95 1009.6
20210802050119 64 128 0.0 0.0 0.00 0.04 0.00 95 1009.6
20210802045919 64 128 0.0 0.0 0.00 0.04 0.00 95 1009.7
20210802045715 64 128 0.0 0.0 0.00 0.04 0.00 95 1009.7
20210802045512 64 128 0.0 0.0 0.00 0.04 0.00 95 1009.7
20210802045309 64 128 0.0 0.0 0.00 0.04 0.00 95 1009.7
20210802045110 64 128 0.0 0.0 0.00 0.04 0.00 95 1009.7
20210802044901 64 128 0.0 0.0 0.00 0.04 0.00 95 1009.6
20210802044700 64 128 0.0 0.0 0.00 0.04 0.00 95 1009.6
20210802044455 64 128 0.0 0.0 0.00 0.04 0.00 95 1009.6
20210802044251 64 128 0.0 0.0 0.00 0.04 0.00 95 1009.6
20210802044050 64 128 0.0 0.0 0.00 0.04 0.00 95 1009.6
20210802043844 64 128 0.0 0.0 0.00 0.04 0.00 95 1009.7
20210802043643 64 128 0.0 0.0 0.00 0.04 0.00 95 1009.8
20210802043439 64 128 0.0 0.0 0.00 0.04 0.00 95 1009.8
20210802043232 64 128 0.0 0.0 0.00 0.04 0.00 95 1009.7
20210802043023 64 128 0.0 0.0 0.00 0.04 0.00 95 1009.7
20210802042815 64 128 0.0 0.0 0.00 0.04 0.00 95 1009.9
20210802042615 64 128 0.0 0.0 0.00 0.04 0.00 95 1010.0
20210802042410 64 128 0.0 0.0 0.00 0.04 0.00 95 1010.0
20210802042204 64 128 0.0 0.0 0.00 0.04 0.00 95 1010.0
20210802041955 64 128 0.0 0.0 0.00 0.04 0.00 95 1010.1
20210802041745 64 128 0.0 0.0 0.00 0.04 0.00 95 1010.2
20210802041545 64 128 0.0 0.0 0.00 0.04 0.00 95 1010.2
20210802041338 64 128 0.0 0.0 0.00 0.04 0.00 95 1010.2
20210802041127 64 128 0.0 0.0 0.00 0.04 0.00 95 1010.0
20210802040919 64 128 0.0 0.0 0.00 0.04 0.00 95 1009.9
20210802040714 64 128 0.0 0.0 0.00 0.04 0.00 95 1009.7
20210802040509 64 128 0.0 0.0 0.00 0.04 0.00 95 1009.6
20210802040309 64 128 0.0 0.0 0.00 0.04 0.00 95 1009.5
20210802040108 64 128 0.0 0.0 0.00 0.04 0.00 95 1009.5
20210802035902 64 128 0.0 0.0 0.00 0.04 0.04 95 1009.4
20210802035652 64 128 0.0 0.0 0.00 0.04 0.04 95 1009.3
20210802035443 64 128 0.0 0.0 0.00 0.04 0.04 95 1009.2
20210802035243 64 128 0.0 0.0 0.00 0.04 0.04 95 1009.2
20210802035038 64 128 0.0 0.0 0.00 0.04 0.04 95 1009.3
20210802034832 64 128 0.0 0.0 0.00 0.04 0.04 95 1009.3
20210802034631 64 128 0.0 0.0 0.00 0.04 0.04 95 1009.4
20210802034426 65 128 0.0 0.0 0.00 0.04 0.04 95 1009.4
20210802034221 65 128 0.0 0.0 0.00 0.04 0.04 95 1009.4
20210802034018 65 128 0.0 0.0 0.00 0.04 0.04 95 1009.4
20210802033819 65 128 0.0 0.0 0.00 0.04 0.04 95 1009.6
20210802033609 65 128 0.0 0.0 0.00 0.04 0.04 95 1009.7
20210802033403 65 128 0.0 0.0 0.00 0.04 0.04 95 1009.7
20210802033201 65 128 0.0 0.0 0.00 0.04 0.04 95 1009.8
20210802032955 65 128 0.0 0.0 0.00 0.04 0.04 95 1009.7
20210802032749 65 128 0.0 0.0 0.00 0.04 0.04 95 1009.3
20210802032542 65 128 0.0 0.0 0.00 0.04 0.04 94 1009.1
20210802032342 65 128 0.0 0.0 0.00 0.04 0.04 94 1009.2
20210802032135 65 128 0.0 0.0 0.00 0.04 0.04 94 1009.3
20210802031935 65 128 0.0 0.0 0.00 0.04 0.04 94 1009.5
20210802031733 65 128 0.0 0.0 0.00 0.04 0.04 94 1009.5
20210802031525 65 128 0.0 0.0 0.00 0.04 0.04 94 1009.6
20210802031323 65 128 0.0 0.0 0.00 0.03 0.04 94 1009.7
20210802031123 65 128 0.0 0.0 0.00 0.03 0.03 94 1009.8
20210802030915 65 128 0.0 0.0 0.00 0.03 0.03 94 1009.7
20210802030710 65 128 0.0 0.0 0.00 0.03 0.03 94 1009.7
20210802030511 65 128 0.0 0.0 0.00 0.03 0.03 94 1009.9
20210802030309 65 128 0.0 0.0 0.00 0.03 0.03 94 1010.0
20210802030100 65 128 0.0 0.0 0.00 0.03 0.03 94 1010.1
20210802025850 65 128 0.0 0.0 0.00 0.03 0.03 94 1010.3
20210802025642 65 128 0.0 0.0 0.00 0.03 0.03 94 1010.3
20210802025433 65 128 0.0 0.0 0.00 0.03 0.03 94 1010.3
20210802025231 65 128 0.0 0.0 0.00 0.03 0.03 94 1010.3
20210802025024 65 128 0.0 0.0 0.00 0.03 0.03 94 1010.3
20210802024820 65 128 0.0 0.0 0.00 0.03 0.03 94 1010.3
20210802024611 65 128 0.0 0.0 0.00 0.03 0.03 94 1010.4
20210802024410 65 128 0.0 0.0 0.00 0.03 0.03 94 1010.4
20210802024208 65 128 0.0 0.0 0.00 0.03 0.03 94 1010.5
20210802024006 65 128 0.0 0.0 0.00 0.03 0.03 94 1010.5
20210802023756 65 128 0.0 0.0 0.00 0.03 0.03 94 1010.6
20210802023549 65 128 0.0 0.0 0.00 0.03 0.03 94 1010.7
20210802023342 65 128 0.0 0.0 0.04 0.03 0.03 94 1010.7
20210802023134 65 128 0.0 0.0 0.04 0.03 0.03 93 1010.7
20210802022923 65 128 0.0 0.0 0.05 0.03 0.03 93 1010.8
20210802022715 65 128 0.0 0.0 0.06 0.03 0.03 93 1010.9
20210802022509 65 128 0.0 0.0 0.06 0.03 0.03 93 1010.9
20210802022306 65 128 0.0 0.0 0.06 0.03 0.03 93 1010.8
20210802022103 65 128 0.0 0.0 0.06 0.03 0.03 93 1010.9
20210802021857 65 128 0.0 0.0 0.06 0.02 0.03 93 1010.8
20210802021655 65 128 0.0 0.0 0.00 0.02 0.02 93 1010.8
20210802021448 65 128 0.0 0.0 0.00 0.02 0.02 93 1010.8
20210802021247 65 128 0.0 0.0 0.00 0.02 0.02 93 1010.9
20210802021044 65 128 0.0 0.0 0.00 0.02 0.02 93 1011.0
20210802020839 65 128 0.0 0.0 0.00 0.01 0.02 93 1010.9
20210802020630 66 128 0.0 0.0 0.00 0.01 0.01 93 1010.9
20210802020420 65 128 0.0 0.0 0.00 0.01 0.01 93 1010.8
20210802020210 66 128 0.0 0.0 0.00 0.01 0.01 92 1010.9
20210802020000 66 128 0.0 0.0 0.00 0.01 0.01 92 1010.9
20210802015752 66 128 0.0 0.0 0.00 0.01 0.01 92 1010.9
20210802015551 66 128 0.0 0.0 0.00 0.01 0.01 92 1010.9
20210802015344 66 128 0.0 0.0 0.00 0.01 0.01 92 1010.9
20210802015140 66 128 0.0 0.0 0.00 0.01 0.01 92 1010.9
20210802014941 66 128 0.0 0.0 0.00 0.01 0.01 92 1010.9
20210802014739 66 128 0.0 0.0 0.00 0.01 0.01 92 1011.0
20210802014530 66 128 0.0 0.0 0.00 0.01 0.01 92 1011.0
20210802014327 66 128 0.0 0.0 0.00 0.01 0.01 92 1011.0
20210802014117 66 128 0.0 0.0 0.00 0.01 0.01 91 1011.1
20210802013909 66 128 0.0 0.0 0.00 0.01 0.01 91 1011.0
20210802013704 66 128 0.0 0.0 0.00 0.01 0.01 91 1011.1
20210802013458 66 128 0.0 0.0 0.00 0.01 0.01 91 1011.1
20210802013252 66 128 0.0 0.0 0.00 0.01 0.01 91 1011.1
20210802013046 66 128 0.0 0.0 0.00 0.01 0.01 91 1011.0
20210802012841 67 128 0.0 0.0 0.00 0.01 0.01 91 1011.0
20210802012632 67 128 0.0 0.0 0.00 0.01 0.01 91 1011.0
20210802012423 67 128 0.0 0.0 0.00 0.01 0.01 91 1011.0
20210802012217 67 128 0.0 0.0 0.00 0.01 0.01 91 1010.9
20210802012015 67 128 0.0 0.0 0.00 0.01 0.01 91 1010.9
20210802011812 67 128 0.0 0.0 0.00 0.01 0.01 90 1010.9
20210802011607 67 128 0.0 0.0 0.00 0.01 0.01 90 1010.9
20210802011404 67 128 0.0 0.0 0.00 0.01 0.01 90 1011.0
20210802011156 67 128 0.0 0.0 0.00 0.01 0.01 89 1011.0
20210802010950 68 128 0.0 0.0 0.00 0.00 0.01 89 1011.0
20210802010744 68 128 0.0 0.0 0.00 0.00 0.00 89 1011.1
20210802010533 68 128 0.0 0.0 0.00 0.00 0.00 89 1011.1
20210802010332 68 128 0.0 0.0 0.00 0.00 0.00 89 1011.0
20210802010133 68 128 0.0 0.0 0.00 0.00 0.00 89 1011.0
20210802005929 68 128 0.0 0.0 0.00 0.00 0.00 88 1011.0
20210802005723 68 128 0.0 0.0 0.00 0.00 0.00 88 1010.9
20210802005522 68 128 0.0 0.0 0.00 0.00 0.00 88 1010.9
20210802005323 68 128 0.0 0.0 0.00 0.00 0.00 88 1010.8
20210802005116 68 128 0.0 0.0 0.00 0.00 0.00 88 1010.8
20210802004917 68 128 0.0 0.0 0.00 0.00 0.00 87 1010.7
20210802004711 68 128 0.0 0.0 0.00 0.00 0.00 87 1010.6
20210802004507 68 128 0.0 0.0 0.00 0.00 0.00 88 1010.6
20210802004258 68 128 0.0 0.0 0.00 0.00 0.00 88 1010.6
20210802004054 68 128 0.0 0.0 0.00 0.00 0.00 87 1010.6
20210802003855 68 128 0.0 0.0 0.00 0.00 0.00 87 1010.6
20210802003655 68 128 0.0 0.0 0.00 0.00 0.00 87 1010.6
20210802003456 68 128 0.0 0.0 0.00 0.00 0.00 87 1010.6
20210802003257 68 128 0.0 0.0 0.00 0.00 0.00 87 1010.5
20210802003047 68 128 0.0 0.0 0.00 0.00 0.00 87 1010.5
20210802002846 68 128 0.0 0.0 0.00 0.00 0.00 87 1010.5
20210802002642 68 128 0.0 0.0 0.00 0.00 0.00 87 1010.5
20210802002432 68 128 0.0 0.0 0.00 0.00 0.00 87 1010.4
20210802002222 68 128 0.0 0.0 0.00 0.00 0.00 87 1010.4
20210802002018 68 128 0.0 0.0 0.00 0.00 0.00 86 1010.4
20210802001807 68 128 0.0 0.0 0.00 0.00 0.00 86 1010.4
20210802001600 68 128 0.0 0.0 0.00 0.00 0.00 86 1010.3
20210802001356 69 128 0.0 0.0 0.00 0.00 0.00 86 1010.3
20210802001147 69 128 0.0 0.0 0.00 0.00 0.00 86 1010.2
20210802000941 69 128 0.0 0.0 0.00 0.00 0.00 86 1010.2
20210802000738 69 128 0.0 0.0 0.00 0.00 0.00 85 1010.2
20210802000534 69 128 0.0 0.0 0.00 0.00 0.00 84 1010.3
20210802000331 69 128 0.0 0.0 0.00 0.00 0.00 84 1010.2
20210802000126 69 128 0.0 0.0 0.00 0.00 0.00 84 1010.3
20210801235923 69 128 0.0 0.0 0.00 0.00 0.00 83 1010.3
20210801235721 69 128 0.0 0.0 0.00 0.00 0.00 83 1010.2
20210801235517 70 128 0.0 0.0 0.00 0.00 0.00 83 1010.3
20210801235318 70 128 0.0 0.0 0.00 0.00 0.00 82 1010.2
20210801235110 70 128 0.0 0.0 0.00 0.00 0.00 82 1010.2
20210801234900 70 128 0.0 0.0 0.00 0.00 0.00 82 1010.2
20210801234700 70 128 0.0 0.0 0.00 0.00 0.00 82 1010.1
20210801234459 70 128 0.0 0.0 0.00 0.00 0.00 82 1010.1
20210801234253 70 128 0.0 0.0 0.00 0.00 0.00 82 1010.1
20210801234045 70 128 0.0 0.0 0.00 0.00 0.00 82 1010.0
20210801233837 70 128 0.0 0.0 0.00 0.00 0.00 82 1010.1
20210801233631 70 128 0.0 0.0 0.00 0.00 0.00 82 1010.1
20210801233425 70 128 0.0 0.0 0.00 0.00 0.00 81 1010.0
20210801233214 70 128 0.0 0.0 0.00 0.00 0.00 81 1010.0
20210801233008 70 128 0.0 0.0 0.00 0.00 0.00 80 1010.0
20210801232809 70 128 0.0 1.0 0.00 0.00 0.00 80 1009.9
20210801232606 70 128 0.0 1.0 0.00 0.00 0.00 80 1009.9
20210801232406 71 128 0.0 2.0 0.00 0.00 0.00 79 1009.9
20210801232204 71 128 0.0 2.0 0.00 0.00 0.00 78 1009.9
20210801232002 71 128 0.0 2.0 0.00 0.00 0.00 78 1009.9
20210801231752 71 127 0.0 2.0 0.00 0.00 0.00 78 1009.8
20210801231547 71 127 0.0 2.0 0.00 0.00 0.00 77 1009.8
20210801231347 72 127 0.0 2.0 0.00 0.00 0.00 76 1009.8
20210801231141 72 124 0.0 2.0 0.00 0.00 0.00 76 1009.7
20210801230936 72 134 0.0 2.0 0.00 0.00 0.00 77 1009.7
20210801230734 72 135 0.0 2.0 0.00 0.00 0.00 76 1009.7
20210801230531 72 135 0.0 2.0 0.00 0.00 0.00 76 1009.7
20210801230324 72 135 0.0 2.0 0.00 0.00 0.00 75 1009.7
20210801230119 72 130 0.0 2.0 0.00 0.00 0.00 75 1009.7
20210801225909 72 130 0.0 4.0 0.00 0.00 0.00 75 1009.6
20210801225710 72 134 0.0 4.0 0.00 0.00 0.00 75 1009.7
20210801225502 72 134 0.0 4.0 0.00 0.00 0.00 74 1009.6
20210801225305 72 134 0.0 4.0 0.00 0.00 0.00 74 1009.6
20210801225054 73 139 0.0 4.0 0.00 0.00 0.00 74 1009.6
20210801224849 73 134 1.0 4.0 0.00 0.00 0.00 75 1009.6
20210801224641 73 134 1.0 4.0 0.00 0.00 0.00 74 1009.6
20210801224439 73 134 1.0 4.0 0.00 0.00 0.00 73 1009.6
20210801224234 73 134 1.0 4.0 0.00 0.00 0.00 72 1009.5
20210801224027 73 128 1.0 3.0 0.00 0.00 0.00 72 1009.5
20210801223825 73 113 0.0 3.0 0.00 0.00 0.00 71 1009.5
20210801223622 74 115 0.0 2.0 0.00 0.00 0.00 71 1009.5
20210801223421 74 123 0.0 2.0 0.00 0.00 0.00 71 1009.5
20210801223216 74 151 0.0 2.0 0.00 0.00 0.00 71 1009.4
20210801223008 74 123 0.0 2.0 0.00 0.00 0.00 71 1009.4
20210801222804 74 123 0.0 2.0 0.00 0.00 0.00 71 1009.3
20210801222600 74 123 0.0 1.0 0.00 0.00 0.00 71 1009.3
20210801222357 74 123 0.0 0.0 0.00 0.00 0.00 70 1009.3
20210801222158 74 123 0.0 2.0 0.00 0.00 0.00 71 1009.3
20210801221956 74 123 0.0 0.0 0.00 0.00 0.00 71 1009.3
20210801221755 74 123 0.0 0.0 0.00 0.00 0.00 71 1009.3
20210801221552 74 122 0.0 0.0 0.00 0.00 0.00 72 1009.3
20210801221352 74 123 0.0 0.0 0.00 0.00 0.00 71 1009.4
20210801221148 74 123 0.0 0.0 0.00 0.00 0.00 70 1009.4
20210801220945 74 122 0.0 0.0 0.00 0.00 0.00 71 1009.4
20210801220739 74 122 0.0 0.0 0.00 0.00 0.00 70 1009.4
20210801220532 74 123 0.0 1.0 0.00 0.00 0.00 70 1009.5
20210801220323 74 122 0.0 1.0 0.00 0.00 0.00 71 1009.5
20210801220123 74 122 0.0 1.0 0.00 0.00 0.00 70 1009.6
20210801215918 74 122 0.0 1.0 0.00 0.00 0.00 70 1009.6
20210801215708 74 122 0.0 1.0 0.00 0.00 0.00 71 1009.6
20210801215459 74 122 0.0 1.0 0.00 0.00 0.00 71 1009.6
20210801215258 74 123 0.0 1.0 0.00 0.00 0.00 70 1009.6
20210801215051 74 123 0.0 1.0 0.00 0.00 0.00 70 1009.6
20210801214850 74 122 0.0 1.0 0.00 0.00 0.00 71 1009.6
20210801214649 74 122 0.0 0.0 0.00 0.00 0.00 71 1009.7
20210801214439 74 122 0.0 0.0 0.00 0.00 0.00 70 1009.7
20210801214233 74 122 0.0 1.0 0.00 0.00 0.00 71 1009.7
20210801214023 74 122 0.0 1.0 0.00 0.00 0.00 72 1009.8
20210801213815 74 122 0.0 0.0 0.00 0.00 0.00 72 1009.8
20210801213612 74 122 0.0 0.0 0.00 0.00 0.00 71 1009.8
20210801213409 74 122 0.0 3.0 0.00 0.00 0.00 73 1009.8
20210801213201 75 123 0.0 3.0 0.00 0.00 0.00 73 1009.8
20210801213001 75 123 0.0 3.0 0.00 0.00 0.00 72 1009.8
20210801212751 75 123 0.0 3.0 0.00 0.00 0.00 72 1009.8
20210801212550 75 123 1.0 3.0 0.00 0.00 0.00 72 1009.8
20210801212350 75 123 1.0 3.0 0.00 0.00 0.00 70 1009.8
20210801212146 75 123 0.0 3.0 0.00 0.00 0.00 70 1009.8
20210801211939 74 126 0.0 3.0 0.00 0.00 0.00 71 1009.8
20210801211738 74 130 0.0 1.0 0.00 0.00 0.00 71 1009.8
20210801211533 74 130 0.0 1.0 0.00 0.00 0.00 71 1009.8
20210801211322 74 130 0.0 1.0 0.00 0.00 0.00 71 1009.8
20210801211118 74 130 0.0 1.0 0.00 0.00 0.00 71 1009.8
20210801210911 74 130 0.0 1.0 0.00 0.00 0.00 70 1009.8
20210801210710 74 130 0.0 2.0 0.00 0.00 0.00 71 1009.8
20210801210505 74 130 0.0 2.0 0.00 0.00 0.00 71 1009.8
20210801210301 74 130 0.0 2.0 0.00 0.00 0.00 70 1009.9
20210801210058 75 130 0.0 2.0 0.00 0.00 0.00 69 1009.8
20210801205854 75 130 0.0 2.0 0.00 0.00 0.00 69 1009.9
20210801205647 74 130 0.0 2.0 0.00 0.00 0.00 69 1009.9
20210801205438 75 130 0.0 2.0 0.00 0.00 0.00 68 1010.0
20210801205233 75 130 0.0 2.0 0.00 0.00 0.00 69 1009.9
20210801205030 75 129 0.0 2.0 0.00 0.00 0.00 67 1009.9
20210801204824 75 130 0.0 0.0 0.00 0.00 0.00 69 1009.9
20210801204620 75 130 0.0 2.0 0.00 0.00 0.00 68 1009.9
20210801204414 75 128 1.0 2.0 0.00 0.00 0.00 68 1009.8
20210801204204 75 128 1.0 2.0 0.00 0.00 0.00 67 1009.8
20210801204002 75 128 1.0 2.0 0.00 0.00 0.00 66 1009.8
20210801203803 75 128 1.0 2.0 0.00 0.00 0.00 66 1009.8
20210801203600 75 129 1.0 3.0 0.00 0.00 0.00 66 1009.8
20210801203350 75 143 1.0 3.0 0.00 0.00 0.00 66 1009.8
20210801203149 75 131 1.0 3.0 0.00 0.00 0.00 65 1009.8
20210801202942 75 138 1.0 3.0 0.00 0.00 0.00 65 1009.8
20210801202742 75 123 1.0 3.0 0.00 0.00 0.00 65 1009.8
20210801202534 75 123 1.0 3.0 0.00 0.00 0.00 66 1009.8
20210801202329 76 123 1.0 3.0 0.00 0.00 0.00 65 1009.9
20210801202120 76 126 1.0 3.0 0.00 0.00 0.00 64 1009.9
20210801201912 76 125 1.0 3.0 0.00 0.00 0.00 63 1009.9
20210801201708 76 118 1.0 3.0 0.00 0.00 0.00 64 1009.9
20210801201500 76 118 1.0 3.0 0.00 0.00 0.00 63 1009.8
20210801201254 77 117 1.0 3.0 0.00 0.00 0.00 63 1009.8
20210801201054 77 115 1.0 3.0 0.00 0.00 0.00 63 1009.8
20210801200852 77 130 1.0 3.0 0.00 0.00 0.00 63 1009.9
20210801200651 77 118 1.0 3.0 0.00 0.00 0.00 62 1009.9
20210801200442 77 120 1.0 3.0 0.00 0.00 0.00 64 1009.8
20210801200232 77 128 1.0 3.0 0.00 0.00 0.00 63 1009.7
20210801200029 77 121 0.0 3.0 0.00 0.00 0.00 65 1009.7
20210801195824 77 121 0.0 3.0 0.00 0.00 0.00 65 1009.8
20210801195623 77 124 0.0 2.0 0.00 0.00 0.00 68 1009.8
20210801195423 77 123 0.0 3.0 0.00 0.00 0.00 68 1009.8
20210801195216 77 123 0.0 3.0 0.00 0.00 0.00 65 1009.8
20210801195009 77 123 0.0 3.0 0.00 0.00 0.00 66 1009.9
20210801194805 77 123 0.0 3.0 0.00 0.00 0.00 63 1009.9
20210801194602 77 124 0.0 3.0 0.00 0.00 0.00 66 1009.9
20210801194352 77 128 0.0 3.0 0.00 0.00 0.00 66 1010.0
20210801194142 77 128 0.0 2.0 0.00 0.00 0.00 67 1010.0
20210801193939 77 128 0.0 2.0 0.00 0.00 0.00 65 1010.0
20210801193732 77 128 1.0 2.0 0.00 0.00 0.00 64 1010.0
20210801193524 77 130 1.0 2.0 0.00 0.00 0.00 64 1010.0
20210801193318 77 132 1.0 2.0 0.00 0.00 0.00 64 1010.0
20210801193117 77 129 1.0 2.0 0.00 0.00 0.00 65 1010.0
20210801192909 77 129 1.0 3.0 0.00 0.00 0.00 65 1010.0
20210801192706 77 129 1.0 3.0 0.00 0.00 0.00 65 1010.1
20210801192456 77 131 0.0 3.0 0.00 0.00 0.00 66 1010.0
20210801192254 77 131 0.0 3.0 0.00 0.00 0.00 64 1010.0
20210801192052 77 131 0.0 3.0 0.00 0.00 0.00 66 1010.0
20210801191851 77 131 0.0 3.0 0.00 0.00 0.00 66 1010.2
20210801191642 77 131 0.0 3.0 0.00 0.00 0.00 66 1010.2